This demonstration page uses our WeatherBlox Daily Observations layout. Learn more.

Hourly Observations for July 13, 2017

Temp ( °F °C ) Dew Point ( °F °C ) Humidity (%) Winds ( mph kmh ) Pressure ( in mb ) Visibility ( mi km ) Precip ( " mm )
12:15 am 00:15 Clear 79 26 75 24 89 89 Calm 30.06 1018 10 16.09344 0 0
12:35 am 00:35 Clear 77 25 77 25 100 100 Calm 30.06 1018 10 16.09344 0 0
12:55 am 00:55 Clear 77 25 75 24 94 94 Calm 30.06 1018 10 16.09344 0 0
1:15 am 01:15 Clear 77 25 77 25 100 100 Calm 30.06 1018 10 16.09344 0 0
1:35 am 01:35 Clear 79 26 75 24 89 89 Calm 30.06 1018 10 16.09344 0 0
1:55 am 01:55 Clear 77 25 75 24 94 94 Calm 30.06 1018 10 16.09344 0 0
2:15 am 02:15 Partly Cloudy 77 25 75 24 94 94 Calm 30.06 1018 10 16.09344 0 0
2:35 am 02:35 Mostly Cloudy 77 25 77 25 100 100 Calm 30.06 1018 10 16.09344 0 0
2:55 am 02:55 Mostly Cloudy 77 25 75 24 94 94 WSW 3 6 30.06 1018 10 16.09344 0 0
3:10 am 03:10 Partly Cloudy 77 25 73 23 89 89 SW 3 6 30.06 1018 10 16.09344 0 0
3:35 am 03:35 Clear 77 25 73 23 89 89 SW 6 9 30.06 1018 10 16.09344 0 0
3:55 am 03:55 Clear 77 25 73 23 89 89 W 6 9 30.06 1018 10 16.09344 0 0
4:15 am 04:15 Clear 75 24 73 23 94 94 Calm 30.06 1018 10 16.09344 0 0
4:35 am 04:35 Clear 75 24 73 23 94 94 SW 3 6 30.06 1018 10 16.09344 0 0
4:55 am 04:55 Clear 75 24 73 23 94 94 Calm 30.06 1018 10 16.09344 0 0
5:15 am 05:15 Clear 75 24 73 23 94 94 Calm 30.06 1018 10 16.09344 0 0
5:35 am 05:35 Clear 73 23 73 23 100 100 Calm 30.06 1018 10 16.09344 0 0
5:55 am 05:55 Clear 73 23 73 23 100 100 S 3 6 30.06 1018 10 16.09344 0 0
6:15 am 06:15 Sunny 73 23 73 23 100 100 Calm 30.06 1018 10 16.09344 0 0
6:35 am 06:35 Sunny 73 23 73 23 100 100 Calm 30.06 1018 10 16.09344 0 0
6:55 am 06:55 Partly Cloudy 75 24 73 23 94 94 Calm 30.06 1018 10 16.09344 0 0
7:15 am 07:15 Mostly Cloudy 77 25 73 23 89 89 Calm 30.06 1018 10 16.09344 0 0
7:35 am 07:35 Partly Cloudy 77 25 73 23 89 89 S 3 6 30.06 1018 10 16.09344 0 0
7:55 am 07:55 Partly Cloudy 79 26 73 23 84 84 S 3 6 30.06 1018 10 16.09344 0 0
8:15 am 08:15 Sunny 79 26 73 23 84 84 Calm 30.09 1019 10 16.09344 0 0
8:35 am 08:35 Sunny 82 28 73 23 74 74 Calm 30.09 1019 10 16.09344 0 0
8:55 am 08:55 Sunny 84 29 73 23 70 70 Calm 30.09 1019 10 16.09344 0 0
9:15 am 09:15 Sunny 86 30 73 23 66 66 WSW 5 7 30.09 1019 10 16.09344 0 0
9:35 am 09:35 Sunny 88 31 73 23 62 62 WSW 5 7 30.09 1019 10 16.09344 0 0
9:55 am 09:55 Sunny 90 32 73 23 59 59 WSW 3 6 30.06 1018 10 16.09344 0 0
10:15 am 10:15 Sunny 91 33 73 23 56 56 WSW 8 13 30.03 1017 10 16.09344 0 0
10:35 am 10:35 Sunny 91 33 73 23 56 56 W 5 7 30.06 1018 10 16.09344 0 0
10:55 am 10:55 Sunny 91 33 73 23 56 56 W 5 7 30.03 1017 10 16.09344 0 0
11:15 am 11:15 Sunny 91 33 73 23 56 56 W 3 6 30.06 1018 10 16.09344 0 0
11:35 am 11:35 Sunny 91 33 73 23 56 56 WSW 5 7 30.03 1017 10 16.09344 0 0
11:55 am 11:55 Sunny 93 34 75 24 56 56 W 6 9 30.03 1017 10 16.09344 0 0
12:15 pm 12:15 Sunny 91 33 75 24 59 59 WSW 7 11 30.03 1017 10 16.09344 0 0
12:35 pm 12:35 Sunny 91 33 75 24 59 59 WSW 7 11 30.06 1018 10 16.09344 0 0
12:55 pm 12:55 Sunny 95 35 75 24 53 53 W 9 15 30.03 1017 10 16.09344 0 0
1:15 pm 13:15 Partly Cloudy 91 33 73 23 56 56 W 12 19 30.03 1017 10 16.09344 0 0
1:35 pm 13:35 Sunny 91 33 75 24 59 59 W 5 7 30.03 1017 10 16.09344 0 0
1:55 pm 13:55 Sunny 95 35 75 24 53 53 W 9 15 30.03 1017 10 16.09344 0 0
2:15 pm 14:15 Sunny 95 35 73 23 50 50 W 6 9 30 1016 10 16.09344 0 0
2:35 pm 14:35 Sunny 93 34 75 24 56 56 SW 6 9 30 1016 10 16.09344 0 0
2:55 pm 14:55 Sunny 93 34 77 25 59 59 WSW 8 13 30 1016 10 16.09344 0 0
3:15 pm 15:15 Sunny 93 34 77 25 59 59 WSW 8 13 30 1016 10 16.09344 0 0
3:35 pm 15:35 Sunny 93 34 77 25 59 59 WSW 9 15 30 1016 10 16.09344 0 0
3:55 pm 15:55 Sunny 91 33 77 25 63 63 SW 6 9 30 1016 10 16.09344 0 0
4:15 pm 16:15 Sunny 91 33 77 25 63 63 WSW 5 7 30 1016 10 16.09344 0 0
4:35 pm 16:35 Sunny 91 33 77 25 63 63 WSW 9 15 30 1016 10 16.09344 0 0
4:55 pm 16:55 Sunny 90 32 79 26 71 71 WSW 6 9 30 1016 10 16.09344 0 0
5:15 pm 17:15 Sunny 90 32 77 25 67 67 SW 5 7 29.97 1015 10 16.09344 0 0
5:35 pm 17:35 Sunny 88 31 79 26 75 75 WSW 3 6 29.97 1015 10 16.09344 0 0
5:55 pm 17:55 Sunny 88 31 77 25 70 70 WSW 3 6 29.97 1015 10 16.09344 0 0
6:15 pm 18:15 Sunny 88 31 79 26 75 75 WSW 3 6 29.97 1015 10 16.09344 0 0
6:35 pm 18:35 Sunny 90 32 79 26 71 71 Calm 29.97 1015 10 16.09344 0 0
6:55 pm 18:55 Sunny 91 33 77 25 63 63 W 3 6 29.97 1015 10 16.09344 0 0
7:15 pm 19:15 Sunny 88 31 79 26 75 75 NNW 6 9 29.97 1015 10 16.09344 0 0
7:35 pm 19:35 Sunny 88 31 79 26 75 75 NNW 8 13 29.97 1015 10 16.09344 0 0
7:55 pm 19:55 Sunny 86 30 79 26 79 79 Calm 30.03 1017 10 16.09344 0 0
8:15 pm 20:15 Sunny 86 30 77 25 75 75 N 3 6 30 1016 10 16.09344 0 0
8:35 pm 20:35 Sunny 86 30 77 25 75 75 Calm 30.03 1017 10 16.09344 0 0
8:55 pm 20:55 Clear 86 30 77 25 75 75 Calm 30.03 1017 10 16.09344 0 0
9:15 pm 21:15 Clear 86 30 77 25 75 75 Calm 30.03 1017 10 16.09344 0 0
9:35 pm 21:35 Clear 84 29 77 25 79 79 N 3 6 30.03 1017 10 16.09344 0 0
9:55 pm 21:55 Clear 82 28 79 26 89 89 Calm 30.03 1017 10 16.09344 0 0
10:15 pm 22:15 Clear 82 28 77 25 84 84 NNW 3 6 30.06 1018 10 16.09344 0 0
10:35 pm 22:35 Clear 81 27 77 25 89 89 Calm 30.03 1017 10 16.09344 0 0
10:55 pm 22:55 Clear 81 27 77 25 89 89 Calm 30.03 1017 10 16.09344 0 0
11:15 pm 23:15 Partly Cloudy 81 27 75 24 84 84 Calm 30.03 1017 10 16.09344 0 0
11:35 pm 23:35 Mostly Cloudy 81 27 73 23 79 79 N 3 6 30.03 1017 10 16.09344 0 0
11:55 pm 23:55 Cloudy 81 27 73 23 79 79 Calm 30.03 1017 10 16.09344 0 0

Powered by AerisWeather